STARLINK-3909 (52452 NORAD) Tracking and Keplerian Element Data

This shows tracking and keplerian element data for the satellite.

Feedback or suggestion? Click here.




ElementValue
Catalog52452
NameSTARLINK-3909
Epoch Orbit130
Epoch Day167.08334491
Epoch Year2022
RAAN68.0041
Inclination53.2173
Eccentricity0.0001481
Argument of Perigee48.6056
Mean Anonmoly320.5998
Mean Motion15.36820191
Decay Rate-0.00690582
L11 52452U 22049B 22167.08334491 -.00690582 00000+0 -20411-1 0 9995
L22 52452 53.2173 68.0041 0001481 48.6056 320.5998 15.36820191 1309

Live tracking and technical data element details for STARLINK-3909 (NORAD 52452). STARLINK-3909 can be tracked NOW for your location showing map with azimuth and elevation plus other details from your city location.

Track the satellite on the map from your city or location and see movement details for azimuth, elevation, latitude, longitude, range, height, and movement on the map or in text.







IsCatalogInMostPopularTable: catalog: 52452, numindb: 5
Update: records affected: 1



GetName: 52452 STARLINK-3909

Hit Count: updated at: Mon, 27 Jun 2022 06:05:56 GMT